Content
SEND FEEDBACK

Daily
Averages
Monthly
Summary
United States of America

PUT IN BAY, OHIO


Home > North America > United States > Ohio
Elevation: 561 feet     Latitude: 41 39N     Longitude: 082 48W

WEATHER
 
SELECT A DAY
Number of Records: 124,886;   Date Range: 12/10/00 - 10/22/14
 
SHARE

PRINT THIS DATA

[ ← Previous Day ]
WEATHER ALMANAC - APRIL 7, 2013
[ Next Day → ]
[ °C ]   °F
Weather ElementAverageHighLow
Temperature52.6 °F57.9 °F (5:00 pm)40.5 °F (11:00 pm)
Dewpoint35.6 °F44.1 °F (10:00 am)27.5 °F (2:00 am)
Humidity51.3 %71 % (10:00 pm)28 % (2:00 am)
Barometer29.82 in30.02 in (11:00 pm)29.66 in (5:00 am)
Wind Speed13.7 mph23 mph (9:00 am)
Wind Gust33.4 mph (9:00 am)
Weather ElementAverage
Wind DirectionSSW (215.8 °)

Weather ElementTotal
Precipitation---
Heating Degree Days15.8 (Base 65)
Averaged from 26 records on April 7, 2013
WEATHER CONDITIONS BREAKOUT
WIND DIRECTION BREAKOUT
WEATHER BY HOUR - APRIL 7, 2013
[ °C ]   °F
Local TimeTemperatureDewpointHumidityBarometerVisibilityWind DirectionWind SpeedGust SpeedPrecipitationEventsConditions
1:00 AM47.8 °F27.7 °F46 %29.80 inSouth (180°)15.0 mph
2:00 AM51.0 °F28.0 °F28 %29.76 inSouth (190°)18.4 mph
2:00 AM51.4 °F27.5 °F40 %29.76 inSouth (190°)18.4 mph24.2 mph
3:00 AM51.1 °F29.5 °F43 %29.72 inSouth (190°)18.4 mph24.2 mph
4:00 AM52.3 °F31.5 °F45 %29.68 inSouth (190°)19.6 mph
5:00 AM55.6 °F34.7 °F45 %29.66 inSSW (210°)19.6 mph28.8 mph
6:00 AM53.6 °F36.7 °F53 %29.67 inSW (220°)13.8 mph20.7 mph
7:00 AM51.6 °F37.2 °F58 %29.67 inSSW (210°)13.8 mph20.7 mph
8:00 AM52.0 °F39.0 °F49 %29.69 inSW (220°)16.1 mph
8:00 AM52.2 °F38.7 °F60 %29.69 inSW (220°)16.1 mph23.0 mph
9:00 AM55.9 °F43.0 °F62 %29.72 inWest (260°)23.0 mph33.4 mph
10:00 AM55.8 °F44.1 °F65 %29.73 inWSW (250°)17.3 mph
11:00 AM55.0 °F42.8 °F63 %29.76 inWest (280°)16.1 mph23.0 mph
1:00 PM56.5 °F40.6 °F55 %29.82 inWest (270°)18.4 mph27.6 mph
2:00 PM56.0 °F39.0 °F41 %29.85 inWest (280°)18.4 mph
2:00 PM56.5 °F38.8 °F52 %29.85 inWest (280°)18.4 mph
3:00 PM57.7 °F38.8 °F49 %29.87 inWNW (290°)13.8 mph21.9 mph
4:00 PM57.4 °F36.5 °F46 %29.89 inWNW (300°)11.5 mph19.6 mph
5:00 PM57.9 °F36.3 °F44 %29.91 inWNW (290°)11.5 mph17.3 mph
6:00 PM56.8 °F35.4 °F45 %29.93 inWNW (300°)9.2 mph
7:00 PM54.9 °F34.0 °F45 %29.95 inNW (310°)5.8 mph
8:00 PM50.0 °F33.0 °F41 %29.96 inNorth3.5 mph
8:00 PM49.8 °F33.4 °F53 %29.96 inNorth (360°)3.5 mph
9:00 PM45.1 °F33.4 °F64 %29.99 inNNE (30°)4.6 mph
10:00 PM41.9 °F33.3 °F71 %30.01 inNE (40°)5.8 mph
11:00 PM40.5 °F31.6 °F71 %30.02 inNE (50°)5.8 mph
Hourly data recorded from CXHA, located miles away from Put In Bay, Ohio







STORIES FROM OUR PARTNERS